Theta_e
324 325 325 326 325 322 321 320 319 320 322 322 320 319 326 335 321 314 335 353 336 330 339 342 344 351 355 362 362 354 351 351 348 348 348 347 347 348 350 352 355 357 358 359 359 359 360 361 361 361 361 361 362 361 361 361 360 360 360 361 360 359 357 354 351 348 345 344 345 345 344 343 340 339 339 338 334 330 330 330 332 332 330 331 332 331 332
322 323 323 325 324 322 320 321 322 322 322 322 321 323 327 332 326 322 340 354 344 335 335 337 343 348 350 356 356 349 346 349 348 348 348 347 347 347 350 351 353 355 356 358 358 359 360 361 361 361 361 361 362 361 361 361 361 360 360 361 360 359 357 354 352 349 346 343 343 343 343 342 340 338 338 337 333 330 330 331 332 332 330 331 333 334 334
319 321 322 323 322 322 320 320 323 322 322 323 322 324 327 329 328 329 338 346 344 338 336 342 350 354 351 351 349 346 348 350 349 349 348 347 348 348 349 351 351 352 355 356 357 358 359 361 361 361 361 362 361 360 360 360 360 360 360 361 360 359 358 355 351 348 346 343 342 342 341 341 339 337 337 337 333 329 330 332 333 333 333 333 335 335 335
317 320 321 321 320 321 318 317 321 322 320 320 322 324 327 328 329 332 332 331 334 339 340 341 346 348 346 347 351 352 351 349 348 350 351 350 351 350 351 352 351 351 352 353 355 356 357 359 360 360 361 361 361 360 360 360 360 360 360 360 360 359 359 356 351 348 346 344 343 342 341 340 339 337 336 336 334 330 331 333 332 332 334 336 336 336 336
317 321 321 319 319 318 315 317 321 322 323 324 323 325 328 329 329 330 326 325 333 344 343 338 339 341 343 348 351 353 354 352 350 351 352 352 351 352 353 352 351 350 349 350 352 354 355 357 358 359 359 360 359 360 360 360 360 360 360 360 360 360 359 356 351 348 345 344 343 342 341 339 339 338 337 335 334 333 333 334 332 331 335 336 336 336 336
319 322 321 319 317 314 317 325 328 325 324 325 322 324 329 330 331 335 335 337 346 347 340 339 342 343 348 350 345 345 348 349 348 350 351 352 351 351 351 349 348 349 349 349 351 352 354 354 355 356 357 357 359 360 360 361 360 359 360 360 360 360 358 356 352 347 344 344 343 341 340 339 339 339 337 337 336 335 335 336 335 335 333 328 331 336 335
321 322 320 317 315 318 326 335 335 329 324 324 328 336 341 337 336 341 342 341 348 347 340 341 345 347 349 349 345 343 343 344 346 347 348 349 349 349 349 348 349 351 351 350 351 351 351 351 352 355 356 357 358 359 359 360 360 360 360 359 358 358 357 355 351 347 345 343 341 341 340 339 339 339 337 336 336 335 336 336 335 334 327 321 328 335 332
323 321 318 318 321 327 334 337 334 329 328 328 328 332 339 341 339 340 340 340 344 346 342 339 339 342 345 346 345 343 340 341 343 342 343 345 345 345 348 349 351 352 351 349 350 351 350 350 352 353 354 356 357 357 358 359 359 359 359 359 358 357 356 354 351 347 345 343 342 341 340 339 339 338 337 336 335 335 335 333 331 330 326 324 330 336 333
325 320 317 321 325 327 332 335 336 334 332 332 329 327 333 340 339 338 341 344 343 342 340 337 336 340 343 343 344 341 338 339 341 341 342 342 342 344 347 348 350 351 351 350 350 351 351 351 352 353 353 355 355 356 357 358 358 358 358 358 357 355 355 353 350 347 345 343 342 341 340 340 340 339 338 337 336 334 332 328 326 324 324 327 333 337 336
326 322 319 322 321 322 329 335 336 335 332 334 338 334 333 338 338 336 339 342 342 341 340 338 338 341 342 342 345 341 337 337 338 339 341 342 343 347 348 348 350 351 352 352 351 351 352 352 352 353 353 354 355 356 357 357 357 357 357 358 357 355 354 353 350 348 346 344 343 342 341 341 341 339 339 337 334 332 329 325 323 322 324 328 331 333 335
327 324 322 322 319 324 334 338 336 334 331 334 337 329 328 337 339 336 336 338 339 340 340 340 342 343 343 345 345 341 339 340 340 342 344 344 345 347 349 350 352 351 352 352 350 351 352 351 351 352 353 354 356 357 357 356 356 356 356 356 355 354 353 351 349 348 346 344 344 343 342 341 339 338 337 334 332 330 326 324 324 326 327 327 327 330 334
329 327 324 323 323 330 338 336 334 332 332 336 332 321 326 339 340 335 337 337 337 340 341 342 345 347 348 347 343 340 343 346 347 348 349 347 346 348 350 351 352 352 352 352 351 351 352 349 350 351 353 355 356 355 354 353 354 354 354 354 353 352 351 350 348 347 346 345 344 343 341 339 337 335 334 333 331 328 326 327 330 331 330 330 331 333 336
329 330 327 326 328 335 338 333 332 333 332 331 327 323 332 341 339 337 339 337 338 342 343 343 345 344 343 342 341 342 346 348 348 347 348 348 348 349 350 351 351 351 351 352 351 351 350 349 349 350 352 354 353 352 351 352 352 351 350 349 348 348 348 347 347 346 345 344 343 341 339 337 335 332 331 331 330 329 329 332 333 332 333 334 336 337 337
330 332 329 327 328 333 335 331 331 333 331 329 329 333 338 339 337 339 339 338 339 341 341 341 340 338 337 337 339 342 344 346 348 347 345 346 347 348 349 349 350 350 350 350 349 348 349 349 349 349 350 351 351 350 350 350 348 346 345 345 345 345 345 345 346 345 343 343 342 339 337 335 332 330 329 329 329 330 332 334 333 333 334 336 336 336 336
335 335 332 330 332 333 332 332 336 338 336 335 337 337 335 334 335 337 336 336 338 337 336 337 337 335 336 336 337 338 340 342 345 346 346 345 345 345 347 347 347 349 349 348 347 347 347 347 348 348 348 349 349 349 349 347 345 343 343 343 343 344 344 344 344 343 342 341 339 337 335 332 330 329 329 329 329 331 332 334 335 336 337 336 335 334 334
340 341 338 336 336 334 330 332 339 340 338 337 336 334 332 331 332 332 333 334 335 335 336 337 336 335 337 336 337 338 338 338 341 344 346 346 344 343 345 345 345 346 346 346 345 345 345 346 346 346 347 347 347 348 346 343 342 342 343 342 343 343 343 344 343 341 340 338 337 336 335 332 331 331 331 331 332 333 334 334 336 338 338 336 334 334 333
340 344 343 339 335 331 329 331 334 334 332 331 331 330 330 330 331 331 332 333 332 334 336 336 337 337 337 336 337 337 336 337 339 342 344 346 345 344 345 345 345 345 345 345 345 344 344 344 344 345 345 345 346 346 344 341 341 342 342 342 343 343 343 343 342 340 338 337 335 334 333 331 332 333 333 333 334 334 334 336 337 337 336 334 333 333 332
337 338 339 338 335 330 328 329 329 328 328 328 329 330 331 330 330 330 331 331 332 334 335 336 337 338 337 337 337 338 338 339 339 341 343 344 346 347 346 346 346 345 346 346 345 345 344 343 343 344 344 344 345 344 341 340 341 341 341 342 343 343 343 341 340 339 338 336 334 333 331 332 332 332 332 333 334 334 336 338 337 336 334 332 332 332 330
338 336 336 337 335 331 328 329 329 328 328 328 329 330 331 329 329 329 329 330 331 332 335 336 336 336 337 338 339 340 341 341 340 341 342 342 344 345 345 345 346 346 346 346 345 346 345 343 343 344 343 344 344 342 340 340 340 340 341 342 342 342 341 340 339 338 338 336 335 334 334 334 334 333 333 335 336 337 338 338 336 334 333 332 332 331 330
342 341 338 333 331 330 328 328 329 329 328 327 327 327 327 327 327 327 328 329 329 331 333 335 336 336 337 339 339 339 340 342 343 343 343 343 344 344 343 343 344 347 348 347 346 348 347 344 342 343 343 343 342 341 340 340 339 340 340 341 342 341 340 339 338 338 337 337 336 336 337 337 336 336 337 337 337 337 336 336 335 334 333 333 332 332 332
340 339 335 330 331 332 330 327 327 328 327 327 326 326 326 326 326 326 326 326 327 328 330 332 334 335 336 337 338 338 339 341 342 343 344 346 346 345 343 342 342 345 347 347 347 348 346 342 341 342 341 340 340 340 340 339 339 339 340 340 341 340 340 339 338 337 337 336 336 337 337 337 336 336 336 336 335 335 334 334 333 333 333 334 334 333 334
338 337 334 333 337 340 335 331 329 328 327 326 326 326 326 325 326 327 326 325 325 325 326 329 331 332 332 333 333 334 336 338 340 342 344 346 347 346 344 342 342 343 344 344 344 343 341 340 340 340 339 339 339 340 339 339 339 339 340 340 341 340 340 339 339 338 337 336 336 335 335 334 333 332 331 331 332 333 332 331 330 330 331 331 332 332 332
336 334 332 333 337 338 333 330 329 328 327 328 328 327 326 325 325 325 325 325 326 325 325 326 327 328 328 328 329 329 329 332 336 340 342 344 345 344 343 343 344 344 343 343 342 341 339 338 338 338 338 339 339 339 339 338 339 340 340 340 340 340 339 339 338 338 337 337 336 335 333 332 330 328 326 326 328 329 331 331 330 329 328 329 329 329 328
330 328 327 329 331 330 327 326 326 326 326 326 326 326 326 325 325 325 325 325 325 325 324 324 324 325 325 324 325 326 326 327 331 334 336 339 341 341 341 342 343 343 343 343 343 341 338 336 336 336 337 338 338 339 338 338 339 340 339 339 340 340 339 338 338 337 337 336 335 334 333 331 329 327 326 325 325 325 327 327 327 326 326 327 327 327 327
325 325 324 325 326 326 324 323 323 324 324 324 324 324 324 324 324 325 326 325 323 323 323 323 322 324 324 323 324 325 325 325 326 328 331 334 336 338 339 340 341 342 342 341 341 340 337 335 334 335 336 337 337 337 337 337 338 338 338 338 339 339 338 338 337 336 335 335 334 333 331 329 328 328 328 329 328 325 323 322 322 322 323 324 325 325 324
323 323 322 321 323 323 323 322 321 321 322 323 323 323 322 323 322 321 322 322 321 321 321 321 321 322 323 324 325 325 324 323 323 325 329 332 334 335 337 338 338 340 340 340 338 337 335 334 334 334 335 335 335 336 336 336 336 337 337 338 338 337 336 336 336 335 334 333 333 331 329 328 327 327 328 329 329 327 324 322 322 321 321 321 321 321 321
324 324 323 322 322 323 322 322 320 320 319 320 320 320 320 321 321 320 319 319 319 319 319 319 320 322 323 323 325 325 325 325 325 325 327 330 331 333 335 336 336 337 338 339 337 335 333 333 333 333 333 333 333 334 334 334 335 336 336 335 335 333 332 333 334 333 332 331 331 330 328 326 326 326 326 327 327 327 326 325 324 322 320 319 319 319 320
323 324 324 325 324 322 321 321 320 320 319 319 318 318 319 320 320 319 319 319 319 319 318 319 320 321 321 321 323 324 324 324 325 325 326 328 330 332 333 335 335 336 337 338 336 334 332 332 332 332 332 331 331 332 332 331 332 333 332 331 331 332 331 331 331 332 332 330 329 327 326 324 324 325 326 326 326 326 326 326 326 323 320 317 318 318 319
322 321 321 322 322 321 321 321 321 320 320 320 319 319 320 321 321 320 319 319 319 319 318 319 320 320 320 320 321 321 321 322 324 325 325 326 329 332 333 334 334 335 336 337 337 334 333 333 332 332 331 330 329 330 330 330 330 331 330 329 329 331 332 331 330 331 331 329 326 325 324 323 324 325 326 327 327 326 325 325 325 324 320 317 316 316 316
320 319 319 319 319 320 320 321 320 320 320 320 320 319 320 321 321 321 320 320 320 319 319 320 321 321 321 320 320 320 320 320 322 323 324 325 328 332 333 334 334 335 336 337 337 335 334 333 332 332 331 330 329 330 329 329 329 329 328 327 327 328 330 331 330 329 329 327 325 324 324 325 325 326 327 327 327 326 325 325 325 324 320 317 316 316 315
318 318 318 319 318 318 318 319 319 319 319 318 319 319 319 320 321 321 321 321 320 320 320 320 321 322 322 321 320 320 320 320 321 323 324 326 328 330 332 334 335 335 336 338 338 336 335 334 333 332 331 330 329 329 329 329 328 327 327 327 328 328 328 328 328 328 329 328 326 326 327 327 327 327 327 327 327 326 325 325 325 324 321 319 318 317 316
317 317 317 318 318 316 317 318 319 319 318 318 319 318 318 319 319 320 320 320 320 320 320 321 321 322 321 321 321 321 321 321 323 324 325 326 328 328 330 332 334 335 336 336 336 335 335 334 333 332 330 328 329 330 329 329 329 330 330 331 330 329 327 327 327 328 329 328 328 328 328 328 327 327 327 327 326 326 325 325 325 324 322 321 320 318 315
318 318 318 318 318 317 318 318 318 318 318 317 317 317 317 318 318 319 320 319 319 319 320 321 321 321 321 321 321 321 321 322 324 325 326 327 328 328 329 330 332 333 334 334 333 333 334 334 333 331 329 328 329 330 330 330 331 331 331 331 330 329 328 327 328 329 329 329 329 328 328 327 327 327 327 327 326 326 326 325 325 324 323 321 320 317 316
318 318 318 317 317 318 318 317 317 317 317 316 316 317 317 318 318 319 320 319 319 319 320 321 321 320 320 321 321 321 321 322 323 325 326 328 328 328 328 329 330 331 331 332 332 332 332 332 331 329 328 329 329 329 330 330 329 329 329 330 330 330 330 329 329 330 330 329 329 328 327 327 328 327 327 327 327 327 326 325 325 324 323 321 319 317 316
316 316 316 316 316 316 316 316 316 317 317 317 317 317 318 319 319 319 320 320 319 320 320 320 320 320 320 320 321 322 323 323 324 325 326 327 327 327 328 329 330 330 330 330 330 330 330 329 329 328 328 328 329 329 329 328 328 328 328 329 329 330 329 329 329 329 328 327 327 327 326 327 327 326 327 327 327 325 325 324 323 323 322 321 320 317 315
316 316 316 316 316 316 315 316 316 316 316 317 318 318 318 319 320 320 320 320 320 320 320 320 320 320 320 320 321 322 323 323 324 325 326 326 326 327 328 329 330 330 330 329 329 330 330 329 329 328 328 328 328 328 328 327 327 327 327 327 327 327 326 326 326 325 325 325 325 324 324 325 325 324 325 325 325 324 324 323 323 323 322 321 320 318 315
317 317 316 316 316 317 316 316 317 317 318 318 319 318 319 319 319 319 319 319 320 320 320 320 321 321 321 321 321 322 323 324 324 325 325 326 327 328 329 330 330 330 330 330 330 330 330 329 328 327 327 327 327 327 327 326 326 326 326 326 325 325 325 324 324 324 324 323 323 323 323 323 324 323 323 323 323 323 322 322 322 322 321 320 320 319 317
317 317 317 317 317 318 317 317 318 318 319 319 319 320 319 319 319 319 319 319 320 320 320 320 321 321 321 322 323 323 324 324 325 325 326 326 327 328 328 328 328 329 330 329 329 329 329 327 325 325 326 326 326 326 326 325 325 324 323 322 323 324 324 324 323 323 323 323 323 323 323 323 322 322 322 322 322 322 321 321 321 321 320 320 319 319 318
318 318 318 318 318 318 319 318 318 319 318 319 319 320 320 319 319 319 320 320 320 320 320 321 322 322 322 322 323 324 324 325 325 326 326 326 327 327 326 325 325 326 327 327 326 326 326 325 324 326 328 328 327 326 325 325 324 322 320 320 322 324 324 322 322 322 323 323 322 322 322 322 321 322 321 321 321 321 321 320 320 320 320 319 319 319 319
318 318 319 318 318 318 319 319 318 318 318 318 319 319 319 319 319 320 321 321 321 320 321 322 323 323 323 323 323 324 324 324 324 325 326 326 327 327 326 325 325 325 326 326 325 325 325 324 324 325 326 326 326 325 324 324 323 323 322 322 322 323 323 322 322 323 323 322 321 321 321 321 321 320 320 321 321 321 320 320 319 319 319 319 318 318 318
319 320 320 320 320 320 320 319 319 318 318 318 319 319 319 318 319 320 321 321 321 321 321 322 323 323 322 322 323 323 323 323 324 324 325 327 327 327 326 325 325 325 326 326 326 325 324 324 324 324 325 325 324 323 323 323 322 322 322 322 322 322 323 323 323 323 322 321 321 320 320 320 319 320 320 320 320 320 319 319 319 319 318 318 318 318 317
320 320 320 320 320 321 320 320 319 320 319 319 319 319 319 318 319 320 320 321 322 323 323 323 323 323 322 323 323 324 324 324 324 324 325 325 326 326 325 325 325 326 326 325 325 324 323 323 322 323 324 324 323 321 320 320 320 320 321 321 321 322 322 321 321 321 321 320 320 320 319 319 319 319 319 319 319 319 319 319 319 319 318 318 318 317 317
320 320 320 320 321 320 320 320 320 320 320 319 319 319 319 319 320 320 321 322 323 323 324 324 324 324 324 324 325 325 325 324 324 325 324 323 323 324 325 325 326 326 324 322 322 322 322 322 322 322 321 320 320 318 317 317 317 317 317 318 318 318 318 318 318 318 318 318 318 318 318 317 317 316 316 316 315 315 315 315 315 316 317 317 318 317 317
321 320 321 321 321 320 320 320 320 320 320 319 318 318 319 320 319 320 321 322 323 323 324 324 324 324 324 324 325 325 325 324 324 325 325 324 323 323 324 324 325 325 323 321 321 322 321 321 321 320 318 317 317 316 315 315 315 315 315 315 315 314 314 314 314 314 314 314 314 314 314 313 313 312 311 310 310 310 310 310 310 311 311 313 314 316 316
321 321 321 321 321 320 320 320 320 319 318 318 318 318 319 318 318 318 319 320 322 323 323 323 323 323 323 323 323 324 323 323 323 324 324 324 323 323 323 323 325 325 323 321 321 321 320 319 319 318 317 316 316 315 314 313 313 313 313 313 312 312 312 311 311 311 311 311 311 311 311 310 309 309 308 308 308 308 308 308 308 308 308 309 311 313 315
321 321 321 320 320 320 320 319 317 317 317 319 320 320 318 316 316 317 317 318 319 320 320 320 321 321 321 321 322 323 324 324 323 323 322 323 323 322 321 322 323 324 323 322 322 321 319 318 317 317 316 316 315 314 311 310 310 310 310 310 310 311 310 310 310 310 310 309 309 309 308 308 307 307 307 307 306 306 306 306 306 307 307 308 309 311 313
320 321 321 321 320 319 317 316 317 318 320 320 320 320 319 316 315 315 316 316 316 316 317 317 318 318 318 317 319 321 323 324 323 322 321 321 321 320 320 321 321 322 322 322 322 321 319 317 317 317 317 317 315 312 310 308 309 309 309 309 310 310 310 309 309 309 309 308 308 308 307 307 307 307 307 306 306 306 306 306 305 305 306 307 309 310 312
319 320 320 320 320 319 318 318 320 322 322 320 320 320 319 316 313 313 313 313 313 314 316 317 316 316 317 317 317 318 320 321 322 322 321 321 320 321 321 321 321 321 322 323 322 320 319 317 317 318 319 318 315 311 308 308 309 309 309 309 310 310 309 309 309 309 309 309 308 308 308 308 307 307 307 306 306 306 306 305 305 305 305 306 307 309 310
319 319 319 320 320 320 320 322 323 323 321 320 320 319 317 315 315 315 315 314 316 317 318 318 315 314 315 316 316 316 317 318 319 320 320 319 320 320 320 320 319 321 323 324 323 321 319 318 317 318 319 320 317 313 309 308 309 309 310 310 310 310 309 309 309 309 309 308 308 308 308 308 308 308 307 306 306 306 306 305 305 304 303 304 305 307 308
319 320 321 322 323 322 322 322 322 321 320 320 320 317 316 317 319 319 317 318 319 320 320 318 316 315 314 314 314 314 314 315 316 317 317 317 318 318 318 318 319 319 321 322 323 322 320 319 317 317 318 320 319 316 313 310 309 309 310 310 310 310 310 309 308 308 307 308 308 308 308 308 308 307 306 306 306 306 306 305 305 304 303 303 304 306 307
319 319 320 321 320 319 318 316 316 316 316 316 315 315 316 319 320 319 318 319 319 319 317 318 318 316 314 313 313 313 313 313 314 315 316 316 317 318 317 317 317 317 318 320 321 321 321 319 318 318 318 319 319 318 316 314 312 310 310 310 310 310 310 309 308 308 308 308 308 308 308 308 308 307 307 307 307 307 306 306 305 304 304 304 304 304 304
317 316 317 318 318 316 315 314 312 312 312 312 313 314 318 320 320 319 318 318 317 317 317 317 317 315 314 313 314 314 313 312 311 312 313 314 316 317 318 318 318 318 318 319 320 320 319 319 319 318 318 318 319 318 317 316 315 313 311 310 310 310 310 309 309 309 308 308 308 308 308 308 308 308 308 308 308 308 307 307 306 305 304 304 304 304 304
Wind_Speed
18 21 19 13 12 13 14 15 17 17 17 18 18 17 12 9 8 12 7 8 10 11 10 11 12 11 11 11 9 6 4 5 6 7 9 11 12 12 13 14 14 14 13 13 14 14 16 19 20 20 20 20 20 20 21 22 23 23 21 20 20 19 17 17 22 30 36 39 43 45 42 38 38 39 39 37 34 34 34 33 31 29 25 24 27 29 27
18 21 20 14 13 13 13 15 17 17 18 20 20 19 17 14 15 15 9 10 12 12 12 13 11 10 10 6 3 4 5 8 9 10 11 12 13 14 15 15 14 13 13 13 13 13 14 17 20 20 20 20 20 21 21 21 21 21 18 17 19 18 17 21 27 31 33 36 39 40 37 37 36 32 30 34 36 36 36 34 33 30 25 25 28 29 28
13 17 17 14 15 16 16 17 16 16 16 17 18 17 14 13 15 13 10 10 10 10 11 10 5 3 3 3 4 8 9 9 10 11 12 13 14 14 15 14 13 12 11 12 13 13 15 18 20 20 20 19 20 20 20 19 19 19 18 18 20 20 19 22 29 31 31 34 39 40 35 33 35 35 33 36 39 39 38 36 34 30 26 26 27 27 27
8 10 14 15 15 15 17 19 17 15 14 13 13 11 9 10 12 9 6 7 8 7 8 7 4 2 5 9 10 9 8 9 11 13 13 13 14 15 14 13 12 13 13 14 14 15 16 19 20 19 17 16 16 16 17 18 19 20 20 20 21 21 19 22 27 30 33 35 35 30 21 20 32 44 47 44 42 39 38 37 34 30 27 25 23 23 24
7 7 10 12 11 10 12 14 15 15 13 11 11 10 10 13 13 9 7 8 8 5 4 6 8 8 9 10 9 7 7 8 11 12 13 13 14 14 13 13 14 15 15 14 14 15 16 18 18 17 16 15 17 19 20 21 20 19 19 20 20 20 19 22 27 31 33 31 25 20 19 23 35 46 49 50 47 40 36 33 30 28 24 19 16 18 19
7 5 4 6 7 8 8 7 11 16 16 16 15 12 11 13 11 6 4 6 6 5 6 8 9 8 5 4 4 3 4 6 9 11 11 9 7 7 9 12 14 13 11 11 12 14 15 15 16 16 18 20 21 21 21 19 19 18 18 18 18 19 20 24 28 30 29 27 26 27 30 34 38 40 43 46 42 33 28 25 24 23 19 14 13 17 18
4 1 3 6 8 8 4 1 4 10 15 18 15 6 4 7 7 4 5 7 6 5 5 6 5 4 3 1 2 2 3 6 8 10 10 7 4 4 7 10 11 10 10 10 11 13 15 16 17 18 21 21 19 18 18 18 19 18 17 17 18 19 21 22 26 29 29 29 31 34 34 34 36 39 42 42 33 23 20 21 21 19 18 17 18 20 21
2 1 4 6 5 1 1 1 2 3 6 9 9 4 2 4 5 6 8 9 5 3 4 4 3 3 5 4 2 1 3 5 6 8 9 8 7 7 7 8 7 8 10 12 13 15 16 18 19 19 19 18 16 16 16 17 17 17 17 17 18 19 19 21 25 29 30 30 31 33 33 34 36 38 40 36 28 21 20 22 21 18 20 23 25 26 27
2 3 4 3 3 3 3 2 3 3 2 5 7 7 6 4 3 5 7 7 5 4 5 5 5 5 5 4 2 3 5 5 5 6 7 8 9 9 10 10 10 10 12 14 16 17 17 16 16 15 15 15 15 14 14 15 16 16 16 16 18 20 19 20 25 28 28 29 30 30 31 31 33 36 36 33 28 26 25 25 25 25 27 28 27 25 25
1 3 4 3 5 6 4 3 2 1 2 3 4 5 6 4 2 5 7 7 7 7 6 7 8 7 5 4 1 5 8 6 3 2 1 3 5 6 7 9 11 11 10 11 12 12 11 10 9 10 12 14 14 14 14 14 14 15 15 16 17 20 19 19 24 26 27 28 29 27 27 27 27 28 28 27 28 29 28 27 29 32 34 31 26 22 21
1 2 5 5 6 4 1 2 2 3 3 3 3 6 6 3 1 3 6 7 7 6 7 9 9 7 6 4 1 6 8 5 0 3 5 6 7 7 7 7 10 10 9 10 11 10 10 8 7 9 12 13 13 12 11 12 13 13 13 13 15 17 17 18 21 23 24 26 25 22 21 21 19 19 20 23 26 27 26 26 28 30 29 26 24 22 21
1 1 4 5 4 1 3 6 7 7 4 2 6 8 5 2 2 2 4 5 6 6 9 9 6 3 3 3 2 4 5 5 5 7 9 10 10 10 11 12 13 13 13 14 13 12 11 9 9 11 12 12 11 10 9 10 10 10 10 12 14 16 16 17 19 20 22 22 19 18 19 19 19 22 26 29 29 28 26 25 23 21 20 18 19 21 21
0 1 3 5 3 1 4 9 11 7 2 5 8 7 2 3 3 1 2 6 7 7 7 7 5 4 5 6 5 6 8 10 10 10 13 15 15 14 14 14 16 16 16 16 15 13 11 12 12 12 13 12 10 9 9 8 7 8 11 14 15 16 15 16 17 18 19 18 16 17 19 18 21 27 29 31 32 28 24 21 19 17 16 15 16 18 18
1 1 3 5 2 3 9 16 12 5 3 4 4 2 2 4 6 7 8 9 10 10 10 10 9 9 10 10 9 10 11 12 11 11 14 16 16 16 15 14 14 15 15 15 16 14 12 13 13 13 14 13 11 9 9 8 9 10 12 13 13 14 15 16 15 15 15 15 16 18 19 21 26 31 30 29 30 27 22 18 17 15 14 14 15 16 17
1 1 2 4 3 3 15 18 9 2 1 1 4 6 4 6 10 11 10 10 9 11 13 13 12 13 13 12 11 12 12 12 12 12 12 14 14 14 15 15 16 17 16 15 15 14 12 13 13 12 14 14 11 10 10 10 12 13 13 13 14 15 15 15 14 14 14 15 18 21 23 25 29 29 25 23 24 23 20 16 14 13 14 16 17 18 19
1 1 1 3 3 8 15 12 3 3 4 4 5 6 6 7 9 9 9 9 8 8 11 12 12 13 12 11 11 11 11 12 12 12 11 11 11 12 14 16 20 22 19 15 15 14 13 14 13 10 12 13 11 9 10 13 15 15 15 16 15 15 14 13 13 14 15 17 21 24 25 27 26 23 20 19 19 18 17 15 14 15 17 18 19 18 18
1 2 1 4 6 9 11 8 5 7 8 7 5 6 7 7 6 6 7 8 7 7 9 10 10 11 11 11 11 11 10 11 11 11 11 11 11 12 13 14 17 20 19 17 16 13 12 14 13 11 11 13 12 11 12 15 16 16 17 17 15 14 13 12 13 14 15 18 23 25 25 25 23 21 20 20 19 17 16 16 17 17 17 19 18 16 16
2 4 1 4 6 8 10 10 8 7 8 6 6 7 7 6 6 6 6 7 7 7 7 9 10 9 10 11 11 10 10 10 10 10 10 10 11 12 11 10 12 16 18 17 15 14 13 13 12 11 11 11 13 14 16 17 17 18 18 17 14 12 13 14 15 15 15 17 20 21 21 21 20 19 20 20 19 17 16 16 17 18 19 20 19 17 15
5 4 3 2 4 7 9 8 6 7 9 8 7 7 7 6 7 8 8 9 9 8 8 9 10 9 10 11 10 9 9 9 9 10 10 10 10 11 10 8 7 10 13 12 11 11 12 12 12 12 12 12 13 16 18 19 19 19 19 17 14 14 16 17 16 16 16 16 16 17 17 16 16 16 16 16 16 17 16 16 19 21 20 18 16 14 13
4 4 6 5 3 4 7 6 4 5 8 10 10 8 7 8 9 10 10 10 9 9 8 8 9 10 10 9 9 9 8 8 8 8 8 8 9 10 10 9 7 7 8 8 8 8 9 12 13 12 12 14 16 17 18 18 19 20 19 15 14 16 17 17 15 16 16 16 15 14 14 14 13 13 13 14 16 18 18 18 20 21 16 12 11 11 11
5 5 6 7 5 2 5 5 2 2 5 8 10 9 10 11 11 12 12 12 10 9 8 7 8 10 9 8 9 10 8 7 7 8 7 8 8 8 8 7 6 5 4 4 4 4 5 9 12 10 9 12 15 17 18 18 20 20 18 15 14 16 16 15 14 14 15 14 13 13 14 13 13 13 13 13 14 16 17 17 17 15 11 8 8 9 9
5 7 10 9 7 4 1 3 1 2 4 8 10 10 10 11 11 11 13 13 12 11 9 8 8 10 8 8 9 9 8 7 7 7 7 7 6 6 5 3 3 4 3 3 4 3 3 6 8 7 7 10 14 15 16 19 20 19 17 15 13 13 14 13 13 14 15 15 15 14 13 13 14 14 14 14 14 13 14 15 15 13 12 11 9 8 8
2 9 12 8 5 6 6 3 0 2 3 7 10 9 9 9 9 9 11 12 11 10 10 8 8 9 8 7 8 9 8 7 7 7 7 6 5 5 3 2 2 2 3 3 2 2 4 5 5 4 6 10 12 14 16 19 19 18 18 15 12 11 12 12 13 15 14 15 16 14 12 14 15 14 12 11 11 12 13 13 13 13 13 12 11 10 9
3 7 7 5 6 9 8 6 4 3 4 7 9 9 8 8 8 8 10 10 9 7 5 5 5 5 6 6 8 9 8 7 8 9 8 8 6 6 4 3 2 1 0 2 3 5 6 7 7 7 8 11 13 14 17 19 18 18 20 18 13 11 11 10 12 14 13 13 15 14 14 16 16 13 11 10 8 8 9 9 9 9 8 8 9 10 9
7 9 8 8 9 10 9 7 6 6 7 8 9 8 9 9 8 8 9 8 6 5 5 4 4 5 6 7 8 8 8 8 9 8 7 6 6 5 3 2 1 2 3 4 5 6 7 8 9 9 10 12 15 16 18 20 19 19 21 18 14 12 12 11 12 13 12 12 13 13 15 17 14 11 10 8 7 6 5 4 4 4 4 4 5 7 8
10 8 9 11 10 8 7 7 7 8 8 9 9 9 8 9 9 8 8 6 4 4 5 5 5 7 9 8 7 7 7 6 6 5 4 4 4 4 4 3 2 2 3 4 5 6 8 9 10 10 10 12 16 17 17 18 18 17 17 14 12 13 15 14 13 12 12 12 13 14 15 16 14 12 10 8 6 6 5 3 2 2 3 5 7 8 9
11 6 7 11 10 8 7 6 6 6 7 8 9 8 7 8 9 9 8 7 6 6 6 6 6 7 8 8 7 6 6 5 5 5 5 5 5 5 5 4 4 3 3 4 4 6 8 9 10 10 9 11 16 18 17 17 17 16 14 12 11 13 16 16 14 12 12 13 13 14 16 16 15 13 12 10 9 7 6 5 5 5 7 8 8 8 8
12 9 7 8 8 7 7 6 5 6 7 7 6 5 5 6 7 8 7 6 6 6 7 8 8 7 7 7 6 6 6 6 6 7 7 7 7 7 6 4 3 3 4 5 5 6 8 8 9 10 8 10 14 16 15 16 16 15 13 12 10 9 12 14 13 12 12 14 16 18 19 19 17 14 12 10 9 8 7 8 7 8 9 11 10 9 9
9 9 9 9 8 7 7 7 8 8 8 7 6 6 6 7 8 8 7 7 7 6 7 8 8 7 7 7 6 6 6 6 6 7 6 7 8 8 6 3 3 4 5 5 6 6 7 8 9 8 7 9 12 11 11 13 13 11 11 11 9 8 11 13 13 12 12 15 18 20 19 18 16 13 10 9 8 8 9 10 9 9 11 13 12 11 11
6 7 7 7 8 8 8 7 7 7 7 7 7 7 7 7 7 7 7 7 6 6 6 6 6 7 7 7 7 6 5 5 6 7 6 7 8 8 5 3 3 3 4 6 7 7 7 8 8 6 5 7 9 9 9 11 11 10 11 11 10 10 11 12 13 13 13 15 17 17 16 15 13 11 9 8 9 9 9 9 9 8 9 12 12 11 11
5 6 6 6 7 8 7 4 4 5 6 6 7 7 7 7 7 6 6 6 6 6 7 6 6 7 7 7 7 7 6 6 6 7 5 4 6 7 5 4 5 5 5 6 6 7 8 8 7 7 7 7 8 9 9 10 10 11 11 11 11 11 11 12 13 12 13 14 16 14 12 11 10 9 9 8 8 8 8 8 7 7 8 10 11 10 12
6 6 6 6 6 5 4 2 2 4 6 7 7 7 7 6 6 6 6 6 6 6 6 6 6 6 7 7 7 7 7 6 6 6 4 3 5 7 6 5 7 7 6 5 4 5 7 7 6 8 9 9 8 8 9 10 11 11 10 8 7 8 9 10 12 12 12 13 13 11 10 10 9 8 8 7 7 7 7 7 7 7 7 8 9 11 15
3 4 3 3 3 3 2 1 2 3 5 5 5 4 4 5 5 5 5 5 5 5 5 5 6 7 7 7 7 6 7 6 5 4 5 6 6 6 6 6 7 7 7 6 5 5 6 5 6 8 9 8 6 6 9 11 10 9 9 8 7 7 10 13 13 13 12 11 10 10 9 9 8 7 7 7 6 6 6 6 6 6 6 6 9 13 17
2 3 3 2 2 3 2 2 2 2 3 3 3 3 4 5 5 5 5 5 5 5 5 6 7 7 7 7 6 6 6 5 3 4 6 8 7 6 5 5 5 4 3 3 3 4 4 5 6 6 5 4 3 3 5 8 7 6 6 7 8 9 12 14 14 13 12 11 10 10 9 8 7 6 6 5 5 5 4 4 4 4 4 4 7 13 17
4 4 3 3 2 2 1 1 1 1 2 3 4 5 5 4 4 4 4 4 4 5 6 6 6 6 6 6 6 5 4 4 4 5 7 7 7 5 4 4 4 4 5 5 3 0 2 3 5 6 5 4 4 4 5 7 7 6 8 11 13 13 12 12 13 13 13 11 10 9 8 7 6 5 4 4 4 3 2 3 3 3 3 4 5 8 13
3 3 3 2 2 1 1 1 1 2 3 4 4 4 4 3 3 3 2 2 4 5 5 6 6 6 6 6 5 4 4 5 5 5 5 4 4 3 4 5 5 5 7 8 7 5 5 6 7 7 7 8 8 9 10 12 13 14 15 17 17 16 15 14 14 13 12 11 9 9 8 7 5 4 3 3 2 2 2 2 3 3 3 4 4 6 10
4 3 3 3 2 3 3 2 2 3 3 3 3 3 4 4 4 3 2 3 4 5 6 7 7 6 6 6 5 4 4 5 4 4 3 2 3 5 5 6 5 6 6 7 8 8 9 11 13 14 16 17 16 16 16 17 18 18 17 17 16 15 13 11 10 10 10 9 9 9 8 7 5 4 3 3 2 2 2 3 3 3 3 4 5 6 8
4 4 4 3 3 3 4 3 3 4 4 4 4 4 4 4 4 4 4 4 5 7 8 8 7 7 7 7 5 5 5 4 4 4 4 4 6 7 8 7 6 6 7 7 8 8 10 13 16 18 19 19 19 19 19 19 19 17 15 12 11 11 11 10 9 8 9 9 8 8 7 5 4 4 3 3 3 3 3 3 3 4 4 4 5 6 7
4 4 4 4 3 3 4 4 4 5 5 4 4 4 5 5 5 5 5 6 7 8 9 8 7 8 8 8 7 7 7 6 5 5 5 6 6 8 8 7 5 5 6 5 5 6 9 11 12 13 13 13 15 17 17 16 14 11 9 7 7 8 9 9 9 9 9 8 8 7 5 4 4 3 3 2 2 3 3 3 4 4 4 4 4 5 5
4 3 3 3 4 4 4 4 5 6 6 5 5 5 5 6 6 6 6 6 7 7 8 8 8 8 8 8 7 7 7 6 5 5 4 4 4 6 7 6 5 4 3 2 3 6 8 9 10 11 10 10 11 12 12 11 10 10 10 11 11 10 9 9 9 9 8 7 6 6 5 5 4 3 3 3 2 2 2 3 3 3 3 3 3 4 4
3 3 3 4 5 5 5 5 5 5 6 6 6 5 5 5 5 5 6 6 6 6 7 8 9 9 8 7 8 7 6 6 6 6 6 5 5 5 4 5 5 4 3 3 4 6 8 9 10 9 8 8 10 12 12 12 11 11 12 12 11 10 9 9 8 7 7 7 6 6 5 4 4 3 3 2 2 2 1 2 2 2 3 3 3 4 4
4 4 5 5 5 6 6 5 4 4 5 5 5 5 5 4 4 4 5 6 6 5 6 8 9 9 8 7 7 7 7 6 6 6 7 7 7 6 5 6 6 6 6 6 6 6 6 6 7 7 8 9 10 11 12 11 10 10 10 10 9 9 9 8 8 7 7 6 6 5 5 4 4 3 3 2 2 2 2 3 4 4 5 5 5 5 5
5 5 5 5 5 5 5 5 4 4 5 5 6 6 6 6 6 5 6 6 6 6 7 8 9 9 8 6 5 5 6 6 5 5 6 6 7 7 7 7 6 5 6 6 5 4 4 5 6 8 9 10 10 9 10 10 9 8 9 8 8 8 7 7 7 7 6 6 5 5 5 4 3 2 2 1 1 1 2 3 4 6 7 7 8 8 8
5 5 5 5 5 4 4 5 5 5 5 6 7 7 7 8 8 8 8 7 7 7 7 8 8 9 9 8 6 5 5 5 5 5 5 6 6 6 6 6 5 4 4 4 3 4 5 6 7 9 10 10 9 9 8 8 7 7 7 7 7 6 6 6 6 6 5 5 5 4 4 3 3 2 1 0 1 2 2 3 5 6 7 8 9 10 10
4 4 4 4 5 5 4 5 5 5 5 5 6 7 8 10 11 10 9 8 7 7 8 8 7 7 7 7 6 6 5 4 4 4 4 4 5 4 3 2 2 3 2 2 2 4 6 7 8 9 10 10 9 7 6 6 6 6 5 5 5 5 5 5 5 5 5 5 4 4 4 3 2 1 0 1 2 2 3 4 6 7 8 9 9 10 10
3 3 4 4 5 5 4 5 5 6 6 6 6 7 10 12 12 11 10 9 9 8 9 9 9 8 8 8 7 7 6 6 6 7 6 5 5 6 5 2 1 1 1 1 1 4 6 8 9 10 10 10 9 7 6 6 6 6 5 5 5 5 5 5 5 5 5 4 4 4 3 2 2 1 1 1 2 3 4 5 6 8 9 9 9 9 10
4 3 3 3 3 3 4 5 5 6 6 6 5 5 9 12 13 11 10 11 12 12 11 11 11 10 10 10 9 8 7 7 7 7 8 8 7 8 8 5 1 3 3 3 2 3 6 9 10 11 11 11 10 8 7 7 7 6 5 5 5 5 5 5 5 4 4 4 3 3 3 3 3 3 3 3 4 4 5 6 7 8 9 9 9 9 9
4 3 3 2 2 2 4 5 4 4 4 4 4 5 9 12 13 12 12 14 15 14 13 12 12 11 10 10 9 8 7 6 5 5 6 7 7 6 6 4 2 2 4 4 4 5 7 10 11 12 12 12 11 10 9 8 7 6 5 5 5 5 5 5 4 4 3 3 4 4 5 5 6 5 5 5 6 6 6 7 8 8 8 8 9 8 8
4 3 2 1 1 1 2 2 2 3 4 4 4 7 11 13 12 12 12 14 13 11 10 10 11 10 8 8 8 8 7 6 5 5 6 7 6 5 4 4 2 2 4 5 5 6 8 11 13 14 13 13 12 11 10 9 8 7 7 6 6 6 6 5 5 5 4 5 5 6 6 6 7 7 7 7 7 7 7 7 7 8 9 9 8 8 8
4 3 1 1 1 1 2 2 2 3 5 5 6 8 10 9 7 8 9 10 9 7 7 8 9 9 8 8 8 8 7 7 7 7 8 8 7 6 5 4 3 4 5 6 6 6 8 10 14 15 15 13 12 13 13 12 11 10 9 9 8 8 8 8 8 8 8 8 8 8 8 8 8 9 9 9 8 8 8 8 8 8 9 9 8 7 7
4 3 2 2 2 2 2 2 3 4 5 6 7 8 7 5 5 6 6 6 6 7 8 8 8 9 10 11 11 10 9 9 9 8 9 9 8 8 7 6 5 5 6 7 8 8 8 9 12 15 15 13 13 14 15 15 14 13 13 13 12 11 11 11 11 12 12 12 12 11 10 10 9 10 10 10 9 9 9 8 8 8 8 8 8 8 8
3 2 2 3 4 3 3 4 6 7 7 7 8 7 6 5 5 6 6 6 6 6 6 6 8 10 11 12 11 12 12 12 11 10 10 10 10 9 9 8 8 7 7 8 8 9 9 10 11 14 15 14 14 15 16 17 17 17 17 17 16 15 15 15 15 15 15 15 14 13 12 12 11 11 11 10 10 9 9 8 9 9 9 9 9 8 9
Wind_Direction
215 223 223 200 192 212 211 210 212 200 195 200 206 219 211 166 201 232 197 168 212 217 207 213 217 213 217 225 222 215 216 209 195 194 193 193 192 188 189 194 193 188 186 184 185 189 192 195 197 200 204 205 207 209 210 212 213 216 215 208 206 205 192 182 190 201 208 210 212 212 206 202 207 207 205 208 211 214 218 219 217 212 207 216 228 232 232
218 223 225 205 196 212 212 211 210 202 200 200 202 215 211 197 219 232 203 188 209 215 215 217 218 217 217 216 202 194 205 201 194 194 196 196 194 192 196 199 193 188 184 181 183 185 189 194 196 199 202 202 206 209 212 213 214 215 215 207 205 203 191 194 205 209 208 209 212 210 201 199 206 207 206 211 215 216 218 218 215 210 207 212 224 233 238
229 229 227 214 207 216 220 216 208 201 204 205 205 211 204 198 218 223 203 202 214 216 220 223 224 217 205 206 208 211 213 201 189 192 197 197 196 199 203 199 187 182 180 178 181 187 192 195 195 197 199 200 204 208 212 214 213 213 213 209 208 205 198 203 208 207 206 208 210 210 203 193 195 205 215 218 216 216 217 214 209 208 208 210 219 232 239
242 228 224 220 213 218 229 229 216 199 197 205 210 208 191 189 206 208 194 210 225 221 221 229 233 196 201 215 217 214 210 196 192 197 197 194 197 203 203 191 180 181 182 181 185 190 194 195 195 196 194 192 196 202 207 212 213 213 212 212 211 206 201 203 206 205 207 210 211 207 193 173 186 203 214 218 218 216 213 209 205 206 208 208 216 231 239
262 240 219 214 208 214 231 233 224 208 195 197 206 204 196 197 200 199 203 219 225 208 188 216 227 217 217 224 224 216 206 197 201 206 201 197 201 204 196 182 180 185 187 186 187 188 190 191 192 190 184 185 194 202 207 210 210 209 209 209 209 205 202 204 206 206 206 206 201 188 178 182 195 203 208 213 216 214 208 203 199 201 204 201 214 232 238
278 268 187 179 198 217 224 223 220 213 202 199 205 205 204 205 202 201 217 227 224 193 180 206 220 216 223 254 266 244 210 197 208 219 222 218 213 203 188 183 186 187 182 178 178 179 179 180 180 182 187 196 202 204 204 204 202 203 204 205 206 204 204 205 206 205 201 196 194 196 197 198 201 203 205 211 214 211 203 194 187 192 192 190 219 237 237
289 336 143 194 224 223 210 176 214 216 213 208 204 190 181 206 215 227 237 231 219 196 198 217 225 199 168 128 322 288 240 214 207 214 225 232 229 203 187 188 192 183 168 163 164 168 172 176 180 187 195 200 200 198 198 198 199 200 199 201 205 205 203 202 203 201 197 195 198 203 203 200 199 202 207 210 210 202 189 176 171 178 179 187 221 236 231
269 273 201 227 258 265 131 89 117 167 203 193 184 174 168 201 218 225 233 236 227 201 212 226 228 184 150 130 105 342 296 258 225 215 214 206 200 195 186 188 190 174 166 166 165 167 173 178 184 191 193 194 193 193 194 195 195 195 198 201 206 206 200 198 200 200 198 199 200 202 203 200 200 204 205 206 203 191 177 166 163 171 179 193 220 230 225
235 266 251 254 296 276 218 176 135 136 169 168 183 201 189 173 196 216 234 254 249 220 207 197 190 179 161 151 121 26 344 297 255 240 225 202 192 188 180 176 173 173 177 174 169 170 175 179 184 186 184 183 183 184 187 188 187 189 195 200 205 207 203 198 201 201 200 200 201 201 201 200 202 204 203 200 194 183 171 166 172 184 193 203 220 227 224
208 270 275 261 253 236 191 144 112 32 317 281 249 221 181 159 202 217 227 243 234 211 184 163 168 177 180 183 145 10 349 319 270 242 226 185 170 162 160 160 157 163 170 164 157 158 159 162 167 169 170 173 174 176 179 179 179 185 193 199 206 209 206 202 203 202 201 202 202 201 202 203 205 205 198 189 181 173 167 172 186 198 203 208 218 227 232
141 263 272 253 244 243 99 43 3 350 323 292 241 211 194 175 202 227 227 230 222 199 165 150 158 174 180 173 55 359 348 339 13 116 103 96 99 101 104 116 128 134 130 123 122 118 113 119 138 155 163 167 168 169 167 167 174 184 191 197 204 207 207 207 206 203 201 203 202 202 204 205 203 195 181 171 168 170 177 187 196 202 205 208 217 231 243
89 255 272 258 245 278 7 345 330 325 314 226 196 201 193 112 23 285 229 199 178 163 152 144 141 157 155 134 65 16 26 45 63 81 88 87 85 87 90 101 113 115 109 105 103 98 98 112 134 147 152 152 148 146 147 157 170 178 187 197 204 207 208 208 206 204 203 201 197 194 197 195 187 178 173 173 176 180 186 192 196 198 201 209 223 237 245
74 171 262 271 258 91 8 337 324 315 272 190 194 201 172 61 34 354 134 136 128 122 125 122 103 77 90 101 97 88 88 84 77 78 83 84 83 85 91 99 104 103 99 98 97 96 103 118 130 138 139 130 122 125 134 144 154 171 191 201 204 206 207 204 204 204 201 194 184 183 187 183 172 168 171 177 180 178 179 185 192 198 205 217 230 236 239
262 141 268 275 237 80 5 340 322 293 217 196 177 142 88 81 80 77 85 98 100 96 93 96 102 101 97 101 104 99 93 90 85 86 89 90 90 92 91 89 92 95 93 91 90 90 97 109 119 126 123 114 111 120 131 140 157 176 191 195 196 198 198 196 195 190 184 181 175 173 174 169 164 166 172 178 177 173 173 180 188 199 211 223 228 228 231
175 99 281 270 229 1 348 335 314 261 220 176 120 102 96 90 85 83 80 77 83 94 99 100 106 108 104 103 101 94 89 87 84 82 84 87 91 93 90 84 83 84 79 71 70 73 80 92 101 112 115 116 121 130 140 155 168 175 180 182 184 186 184 182 179 174 173 174 170 168 168 166 164 168 174 176 173 172 174 179 189 204 215 220 222 222 226
260 121 285 306 320 330 333 332 330 88 79 102 116 105 99 92 88 89 87 76 68 84 100 105 105 102 98 92 87 81 76 77 78 76 74 78 83 86 86 87 87 86 84 79 73 71 80 92 100 110 118 122 126 134 149 162 167 169 173 176 175 171 168 168 169 170 171 168 167 170 173 170 167 166 169 171 173 174 178 189 204 214 217 218 218 220 224
286 118 208 307 327 329 335 353 37 73 86 94 91 92 96 91 85 87 89 87 75 70 84 92 89 87 86 80 75 72 66 63 67 70 70 71 76 81 85 91 94 97 101 103 100 97 100 108 115 123 128 132 139 149 160 166 166 167 170 169 164 158 159 164 167 168 166 165 168 172 173 171 167 165 169 174 178 181 188 201 210 213 215 217 215 215 216
132 96 127 290 322 340 348 3 24 53 71 69 62 76 79 68 65 66 67 71 62 49 63 75 69 68 77 77 72 70 67 61 56 58 60 60 66 75 78 81 93 103 108 109 112 115 116 119 125 131 138 146 154 161 166 168 170 170 168 162 156 155 162 165 165 163 160 162 166 167 168 170 171 173 177 181 185 190 196 203 207 209 214 216 214 212 211
157 127 162 253 339 345 343 353 17 43 56 54 46 54 63 63 66 64 61 66 61 46 54 71 70 63 65 71 69 62 61 60 53 51 53 50 51 58 59 53 67 95 103 107 114 120 126 136 143 148 156 165 169 169 168 169 173 173 167 159 156 163 166 163 162 163 161 158 158 161 166 171 176 180 185 187 190 196 199 202 209 215 218 214 208 205 209
147 137 155 147 78 1 335 341 9 41 62 67 59 53 57 62 65 62 59 62 65 58 51 60 74 71 61 62 68 63 53 51 47 45 48 47 45 51 53 47 47 63 83 105 122 125 133 149 159 165 171 175 174 170 169 172 175 173 165 159 163 169 167 160 159 166 165 158 155 161 168 173 177 184 191 196 199 203 206 210 216 220 220 212 206 211 214
97 94 132 143 124 54 335 328 6 51 75 85 79 71 66 61 61 62 58 53 55 60 54 49 65 72 61 57 68 69 58 47 38 31 31 34 38 46 49 48 54 59 65 88 100 91 114 153 171 178 177 173 170 168 171 177 178 172 165 165 169 168 164 161 163 166 167 165 162 161 164 171 178 184 192 202 207 210 216 220 221 221 220 215 220 224 215
145 158 168 167 147 135 242 266 289 24 84 96 91 83 76 70 66 66 66 59 48 43 40 44 63 70 57 50 64 70 61 49 39 31 27 27 33 45 55 74 101 108 100 85 76 82 125 162 174 174 170 173 173 173 178 181 179 173 168 168 168 163 162 169 173 173 176 179 176 169 168 178 186 188 195 203 206 208 216 220 222 224 227 227 227 218 203
162 162 165 161 133 131 145 155 333 358 61 91 94 89 85 84 81 81 84 79 64 42 23 21 51 73 67 52 60 66 59 47 40 34 27 21 21 25 33 66 87 89 98 103 111 161 187 195 191 185 188 188 183 181 183 182 179 176 171 164 158 161 171 179 182 182 185 188 185 180 182 188 187 182 182 188 192 200 212 219 224 230 233 233 234 233 230
43 105 119 104 99 114 120 123 129 117 91 92 97 92 85 80 73 70 76 81 83 84 58 18 25 65 77 68 65 67 62 49 39 33 24 16 11 5 10 29 43 21 239 214 218 216 216 216 208 198 196 192 187 185 185 183 182 181 176 169 163 168 177 182 183 186 189 189 186 185 187 188 184 176 170 168 172 190 210 223 232 240 244 245 245 241 237
81 88 81 79 93 103 106 108 107 98 94 100 102 95 89 87 76 66 65 64 66 89 98 75 38 35 52 62 61 59 60 52 40 34 26 17 10 2 359 357 264 233 222 221 221 213 206 201 194 189 188 186 185 187 188 187 186 184 181 176 170 170 172 170 173 180 183 182 182 183 185 186 185 181 180 177 170 173 190 217 241 251 250 237 216 200 189
73 86 95 92 84 81 92 92 72 60 69 89 97 94 94 100 100 95 92 87 71 60 66 68 54 42 46 54 56 58 66 63 47 38 35 28 18 1 346 329 298 266 232 221 215 202 192 187 186 185 185 184 185 186 187 187 186 183 182 180 176 176 177 172 168 173 179 182 182 184 187 190 190 191 195 198 190 178 178 189 200 184 172 169 163 159 162
51 46 86 94 77 52 52 62 66 65 63 71 86 93 99 113 118 113 109 109 103 87 70 60 57 53 49 46 47 54 62 61 50 38 30 23 14 356 338 321 309 296 263 243 230 207 193 188 189 189 185 184 185 185 183 184 183 179 178 178 175 177 181 178 172 173 179 183 183 184 188 192 194 197 203 209 209 203 198 191 176 159 158 165 167 168 172
44 28 43 76 76 52 38 36 49 63 54 50 65 82 93 105 104 95 91 86 78 73 66 53 49 53 48 35 31 34 37 35 35 29 17 7 358 348 334 308 293 283 263 252 243 218 202 197 197 196 189 184 184 182 180 180 177 173 174 175 170 170 179 182 180 177 179 186 190 192 195 198 202 207 213 214 212 209 203 196 184 167 166 173 174 172 176
38 30 41 59 58 47 37 26 23 30 33 31 33 37 48 64 66 60 55 48 43 47 44 33 32 39 37 27 24 22 16 13 12 7 360 352 343 339 332 299 268 266 261 253 240 221 209 204 202 201 192 183 180 176 173 176 175 169 167 170 170 174 182 188 190 188 188 193 198 200 203 207 213 216 215 210 207 203 198 196 190 176 173 178 175 168 170
29 28 40 48 45 47 47 30 12 14 20 23 30 35 40 53 62 56 39 30 35 40 30 18 20 25 21 18 17 9 356 346 338 333 339 345 339 335 326 279 241 242 250 246 236 224 215 207 202 195 182 176 178 179 180 183 184 183 184 190 199 205 205 205 204 201 200 203 205 207 209 213 215 212 203 198 200 199 195 195 192 180 175 178 177 171 171
51 34 30 36 44 54 59 40 8 15 20 22 33 40 40 47 57 54 37 29 31 28 20 15 15 13 7 1 354 345 336 328 320 318 332 351 342 335 321 264 234 237 249 249 240 227 217 208 199 186 171 169 180 190 194 197 202 208 215 219 221 222 223 220 212 203 199 201 201 201 200 199 197 193 188 186 188 189 188 190 190 187 184 182 180 179 180
77 51 26 20 23 30 40 34 26 36 37 32 32 32 28 30 35 33 26 25 22 14 11 10 5 358 349 341 338 334 329 323 316 316 333 348 342 340 327 280 254 254 261 272 274 244 223 210 196 189 188 192 198 206 219 229 231 226 221 213 207 212 215 210 200 192 187 187 185 181 179 179 177 176 177 177 177 180 183 187 192 195 193 185 180 184 188
83 66 39 14 351 341 347 7 18 39 51 48 41 34 26 25 29 28 23 19 14 9 6 358 350 342 336 333 334 334 332 326 315 317 334 342 345 346 333 305 282 269 261 270 286 270 237 212 196 196 206 218 226 231 238 240 234 221 207 193 183 186 186 182 178 172 166 164 165 162 161 163 162 163 165 168 169 173 181 190 195 195 194 190 189 195 199
43 55 48 27 358 344 348 1 8 34 64 72 67 55 41 31 27 25 18 12 10 8 2 353 346 341 338 338 340 341 339 334 327 328 335 340 345 345 334 320 316 306 286 282 284 264 235 215 202 195 201 220 240 243 226 213 204 203 197 174 155 158 168 168 161 150 142 141 144 144 142 142 145 152 157 161 166 173 184 196 198 195 196 198 200 202 206
52 59 57 43 20 1 357 9 16 38 65 69 63 54 44 34 29 25 18 16 19 16 10 2 356 351 351 350 348 345 344 338 328 326 330 334 338 342 346 355 10 36 55 57 55 120 188 178 175 167 159 167 184 190 182 171 166 171 166 148 136 133 136 135 130 124 123 124 128 130 130 130 136 145 151 155 162 174 190 197 195 200 207 200 188 193 202
72 89 96 90 83 83 76 53 46 53 59 60 60 57 51 44 36 25 14 25 33 27 19 17 19 17 11 2 351 344 342 334 324 323 329 341 355 9 21 28 43 69 76 69 67 78 99 118 135 141 137 134 138 142 140 135 136 142 142 133 124 118 113 111 112 114 117 120 121 122 124 122 121 124 126 128 143 172 199 201 198 201 201 187 170 173 189
73 83 90 88 87 90 82 65 61 70 74 72 65 57 49 40 30 18 16 27 28 19 17 23 28 28 19 7 352 342 345 343 338 340 353 30 61 70 67 64 73 92 94 79 74 85 104 115 118 119 119 119 120 124 128 128 128 129 126 119 116 115 112 108 109 112 118 123 122 121 121 118 111 109 110 113 135 166 188 199 197 190 181 176 172 172 181
65 68 74 74 72 77 77 70 64 68 72 73 68 55 41 29 16 7 10 15 10 10 18 27 30 28 26 25 23 20 22 24 26 29 45 73 83 80 73 64 68 88 94 83 78 92 114 121 118 116 117 119 119 121 124 127 127 123 114 104 103 109 112 114 119 125 129 128 121 115 114 112 109 116 127 135 147 162 175 190 199 200 198 192 188 184 184
67 69 74 76 72 73 75 70 62 55 48 46 46 37 26 18 9 1 6 13 10 12 22 31 33 32 35 38 39 39 39 39 42 53 67 78 83 84 80 68 64 90 102 92 90 112 128 131 125 119 116 115 117 121 127 132 132 125 111 105 113 125 131 137 143 143 135 125 116 111 113 115 120 130 145 153 161 175 189 197 202 205 204 200 195 194 196
64 65 70 74 71 65 59 55 52 47 38 30 29 22 13 6 1 358 2 6 6 11 24 34 38 40 42 41 43 46 42 33 31 41 51 54 67 82 83 68 63 94 127 125 121 138 148 147 138 129 124 123 128 134 137 135 128 120 119 127 137 144 146 145 144 138 132 128 129 131 133 134 137 141 150 163 177 189 190 190 196 203 206 209 214 219 221
65 61 61 62 58 52 48 46 46 44 37 28 21 18 11 4 359 356 356 355 354 2 19 31 37 43 47 49 52 56 51 37 27 24 19 22 44 67 72 60 59 81 111 114 117 137 151 151 140 132 129 133 138 140 138 132 126 123 124 128 132 136 139 142 144 145 147 152 155 155 153 154 157 159 164 177 195 208 209 218 232 238 241 244 244 243 241
54 52 53 56 51 45 43 42 40 42 43 33 22 17 14 8 359 352 350 352 354 358 9 21 29 38 48 57 65 65 59 47 38 35 34 38 48 61 73 78 79 90 109 116 119 129 139 136 130 127 125 127 132 133 130 126 122 119 120 124 130 137 143 149 154 157 160 165 168 170 175 179 184 188 191 201 224 247 264 274 275 270 265 261 256 252 249
38 41 49 53 47 40 39 38 34 38 42 33 24 19 15 11 9 5 2 3 8 10 9 12 18 25 31 36 48 60 56 47 46 58 66 66 63 70 85 92 95 110 127 126 121 123 127 123 125 130 129 127 128 128 125 122 120 120 123 129 136 142 148 154 159 162 168 174 175 177 179 186 191 191 187 194 255 303 313 307 298 289 284 278 269 261 255
25 36 44 46 41 38 37 33 30 31 26 16 13 16 17 16 15 15 11 10 9 8 7 8 11 16 18 18 21 31 34 29 29 46 72 85 82 83 93 101 105 122 141 133 114 121 135 135 135 138 140 139 136 133 129 128 128 129 133 139 144 149 154 160 163 166 169 170 170 171 171 172 171 165 147 73 352 341 333 324 317 309 301 292 280 269 260
17 28 31 34 37 37 29 23 23 21 11 4 12 21 20 16 16 17 15 12 8 6 5 4 4 6 10 13 15 19 22 21 20 21 35 61 70 63 66 107 119 117 124 120 122 144 156 158 157 157 158 155 149 144 143 144 143 144 148 153 156 160 163 162 162 165 167 168 169 170 167 161 155 144 95 359 330 318 317 322 322 315 307 299 290 277 265
5 18 29 36 38 32 21 14 14 12 9 13 23 23 14 10 11 13 12 7 4 4 4 6 6 8 7 6 6 11 19 34 46 43 36 34 31 20 9 352 239 238 274 272 175 173 177 176 175 175 177 176 171 169 173 171 164 161 164 164 164 167 169 167 168 173 175 175 175 173 170 171 183 208 262 295 299 300 306 316 317 311 305 302 297 286 273
351 9 33 37 30 25 20 16 14 14 15 18 16 3 358 1 5 9 8 5 5 6 8 11 15 18 16 13 13 13 12 19 36 46 41 33 23 15 12 8 311 259 266 267 245 214 200 192 187 188 192 193 193 193 193 188 180 176 177 177 178 180 182 183 187 191 194 198 203 206 210 222 233 244 260 277 286 291 299 309 314 312 308 305 300 293 284
349 359 11 6 1 12 13 8 8 14 15 10 355 342 347 355 1 6 7 7 7 9 11 13 16 19 21 20 20 17 10 6 15 29 25 19 14 11 8 5 339 264 253 251 245 229 216 208 202 199 201 206 210 211 208 202 198 198 199 198 201 204 206 207 212 217 223 231 237 238 240 243 246 249 256 267 275 282 291 301 308 312 312 309 301 296 292
344 343 342 334 340 9 7 360 3 9 2 352 346 349 352 354 358 3 4 3 3 6 7 7 10 16 21 20 16 12 4 353 341 335 339 344 349 353 348 339 316 260 236 233 236 232 223 216 212 210 209 212 220 224 223 219 221 224 224 225 229 231 232 234 238 245 250 251 249 247 249 252 255 259 262 264 266 272 281 290 297 306 316 319 312 301 295
341 352 13 17 13 15 6 354 353 354 351 347 348 352 354 353 350 350 353 354 353 351 351 352 356 2 6 2 359 360 358 346 332 326 323 322 322 323 322 315 294 261 243 237 238 239 231 223 221 219 216 217 226 233 234 232 234 237 240 243 244 243 244 246 247 248 247 246 243 242 245 250 255 262 266 265 261 265 274 281 286 295 309 318 317 310 304
336 346 2 4 359 7 17 25 21 10 3 360 357 353 350 345 333 333 344 354 353 348 346 344 341 344 348 347 344 346 347 342 332 323 316 310 307 306 303 298 291 277 262 251 247 245 239 231 229 228 226 225 231 239 243 244 244 244 246 247 246 243 244 245 244 243 244 244 243 242 244 247 249 254 258 259 258 261 267 272 277 284 293 299 304 309 311
344 360 13 11 10 17 42 55 42 23 11 7 2 353 343 336 331 332 343 357 358 351 346 336 328 331 340 344 341 340 341 339 333 321 308 299 294 291 287 284 281 276 267 260 255 253 251 246 243 241 238 235 235 241 247 250 250 248 248 249 248 246 246 247 246 244 245 246 246 243 241 243 245 247 249 251 254 258 262 266 270 275 280 282 287 295 301